User: anonymous   Login
Location: Unspecified
(0.0000°N, 0.0000°E)
Time: 02:06:28
(UTC+00:00)
Language:

Tiros 10 - Orbit

View from above orbital plane
View from above orbital plane
View from above satellite
View from above satellite

Ground track
Ground track

The orbit data is extracted from the following two-line orbital elements,

1  1430U 65051A   18320.39790446 +.00000015 +00000-0 +17388-4 0  9998
2  1430 098.2161 096.5822 0057454 131.2402 229.3758 14.40237563797102
Epoch (UTC): 16 November 2018 09:32:58
Eccentricity: 0.0057454
inclination: 98.2161°
perigee height: 717 km
apogee height: 799 km
right ascension of ascending node: 96.5822°
argument of perigee: 131.2402°
revolutions per day: 14.40237563
mean anomaly at epoch: 229.3758°
orbit number at epoch: 79710

The dashed part of the orbit path shows where the satellite is in the earth's shadow,  

DLR